GW6277 Weather Reports


time (UTC)temp
F
wind
direction
speed
knots
gust
knots
rain 1hr
in
rain 24hr
in
rain mn
in
humidity
%
barometer
mb
20260507031141 59 104 0.0 0.0 0.00 0.09 0.09 92 1004.8
20260507030638 59 38 1.7 1.7 0.00 0.09 0.09 93 1004.8
20260507030136 59 67 0.9 1.7 0.00 0.09 0.09 93 1004.8
20260507025633 59 104 0.0 0.0 0.00 0.09 0.09 92 1004.8
20260507025130 59 91 0.0 0.0 0.00 0.09 0.09 93 1004.8
20260507024628 59 86 0.9 0.9 0.00 0.09 0.09 93 1004.7
20260507024125 59 142 0.0 0.0 0.00 0.09 0.09 93 1004.5
20260507023620 59 145 0.0 0.0 0.00 0.09 0.09 93 1004.5
20260507023118 59 144 0.0 0.0 0.00 0.09 0.09 93 1004.6
20260507022615 59 104 0.0 0.0 0.00 0.09 0.09 93 1004.8
20260507022110 59 88 1.7 1.7 0.00 0.09 0.09 93 1004.8
20260507021606 59 138 0.0 0.0 0.00 0.09 0.09 93 1004.9
20260507021102 59 138 1.7 1.7 0.00 0.09 0.09 93 1004.7
20260507020601 59 146 0.0 0.0 0.00 0.09 0.09 93 1004.8
20260507020057 59 128 0.0 0.9 0.00 0.09 0.09 93 1004.6
20260507015556 59 129 0.0 0.0 0.00 0.09 0.09 93 1004.8
20260507015053 59 147 0.0 0.0 0.00 0.09 0.09 93 1004.7
20260507014549 59 171 0.9 0.9 0.00 0.09 0.09 93 1004.7
20260507014045 59 179 1.7 1.7 0.00 0.09 0.09 93 1004.9
20260507013542 59 133 0.0 0.0 0.00 0.09 0.09 93 1004.7
20260507013039 59 168 0.9 1.7 0.00 0.09 0.09 93 1004.6
20260507012536 59 137 0.0 0.0 0.00 0.09 0.09 93 1004.5
20260507012032 59 151 0.0 0.9 0.00 0.09 0.09 93 1004.7
20260507011530 59 156 0.9 0.9 0.00 0.09 0.09 93 1004.8
20260507011026 59 139 0.0 0.9 0.00 0.09 0.09 93 1004.9
20260507010520 59 172 0.9 1.7 0.00 0.09 0.09 93 1004.8
20260507010017 59 129 0.9 0.9 0.00 0.09 0.09 93 1005.0
20260507005514 59 157 0.9 0.9 0.00 0.09 0.09 93 1004.9
20260507005011 59 236 5.2 6.1 0.00 0.09 0.09 93 1004.8
20260507004508 59 70 1.7 1.7 0.00 0.09 0.09 93 1004.9
20260507004006 59 232 0.9 2.6 0.00 0.09 0.09 93 1004.9
20260507003500 59 147 0.0 0.0 0.00 0.09 0.09 93 1004.9
20260507002955 59 121 0.0 0.0 0.00 0.09 0.09 93 1004.7
20260507002453 59 156 0.9 0.9 0.00 0.09 0.09 93 1004.8
20260507001949 59 141 0.0 0.0 0.00 0.09 0.09 93 1004.9
20260507001446 59 172 0.9 1.7 0.00 0.09 0.09 93 1004.8
20260507000943 59 156 0.0 0.9 0.00 0.09 0.09 93 1004.8
20260507000439 59 207 1.7 2.6 0.00 0.09 0.09 93 1004.7
20260506235934 59 158 0.9 0.9 0.00 0.09 0.09 93 1004.6
20260506235432 59 151 0.0 0.0 0.00 0.09 0.09 93 1004.5
20260506234927 59 130 0.9 1.7 0.00 0.09 0.09 93 1004.4
20260506234425 59 137 0.0 0.0 0.00 0.09 0.09 93 1004.5
20260506233923 59 147 0.0 0.0 0.00 0.09 0.09 93 1004.5
20260506233419 59 188 2.6 5.2 0.00 0.09 0.09 93 1004.4
20260506232916 59 144 0.0 0.9 0.00 0.09 0.09 93 1004.7
20260506232412 59 118 0.0 0.0 0.00 0.09 0.09 93 1004.4
20260506231908 59 141 0.0 0.0 0.00 0.09 0.09 93 1004.2
20260506231406 59 147 0.9 0.9 0.00 0.09 0.09 93 1004.4
20260506230903 59 209 3.5 5.2 0.07 0.09 0.09 92 1004.4
20260506230359 59 205 1.7 6.1 0.07 0.09 0.09 92 1004.4
20260506225855 59 150 0.9 0.9 0.07 0.08 0.08 92 1004.5
20260506225353 59 145 0.9 1.7 0.07 0.08 0.08 92 1004.6
20260506224844 59 154 0.9 1.7 0.00 0.07 0.07 92 1004.5
20260506224342 59 142 0.9 1.7 0.00 0.07 0.07 91 1004.5
20260506223838 59 151 0.9 1.7 0.00 0.07 0.07 91 1004.4
20260506223333 59 154 0.0 0.0 0.00 0.07 0.07 92 1004.7
20260506222830 59 151 2.6 5.2 0.00 0.07 0.07 92 1004.5
20260506222325 59 122 0.0 0.0 0.00 0.07 0.07 92 1004.6
20260506221819 60 141 0.0 0.9 0.00 0.07 0.07 92 1004.6
20260506221316 60 175 1.7 1.7 0.00 0.07 0.07 91 1004.6
20260506220813 60 144 0.9 1.7 0.05 0.07 0.07 91 1004.8
20260506220313 60 144 0.9 1.7 0.05 0.07 0.07 91 1004.9
20260506215810 60 147 0.9 2.6 0.05 0.07 0.07 90 1004.8
20260506215306 60 161 0.9 0.9 0.00 0.06 0.06 90 1005.0
20260506214802 60 230 1.7 2.6 0.00 0.06 0.06 90 1004.9
20260506214259 60 147 0.0 0.9 0.00 0.06 0.06 90 1005.0
20260506213757 60 150 0.9 0.9 0.00 0.06 0.06 90 1005.0
20260506213254 60 131 0.0 0.0 0.00 0.06 0.06 90 1005.0
20260506212751 60 206 1.7 2.6 0.00 0.06 0.06 90 1005.1
20260506212247 60 137 0.0 0.9 0.00 0.06 0.06 90 1005.3
20260506211742 60 188 0.0 0.9 0.00 0.06 0.06 90 1005.1
20260506211239 60 201 0.9 1.7 0.00 0.06 0.06 89 1005.2
20260506210736 60 166 0.9 1.7 0.00 0.06 0.06 89 1005.2
20260506210233 60 141 0.9 0.9 0.00 0.06 0.06 89 1005.2
20260506205731 60 131 0.0 0.0 0.00 0.06 0.06 89 1005.3
20260506205226 60 133 0.9 0.9 0.00 0.06 0.06 89 1005.3
20260506204723 60 172 1.7 2.6 0.07 0.06 0.06 89 1005.3
20260506204220 60 152 0.9 0.9 0.07 0.06 0.06 89 1005.7
20260506203718 60 123 0.0 0.9 0.00 0.05 0.05 89 1005.7
20260506203215 60 133 0.0 0.0 0.00 0.05 0.05 88 1005.4
20260506202713 60 144 0.0 0.9 0.00 0.05 0.05 88 1005.5
20260506202209 60 210 3.5 5.2 0.00 0.05 0.05 88 1005.6
20260506201706 60 159 0.9 1.7 0.00 0.05 0.05 88 1005.6
20260506201202 60 138 0.9 0.9 0.00 0.05 0.05 88 1005.7
20260506200659 60 151 2.6 3.5 0.00 0.05 0.05 89 1005.8
20260506200156 60 170 0.9 0.9 0.00 0.05 0.05 89 1005.7
20260506195652 60 138 0.0 0.9 0.00 0.05 0.05 89 1005.5
20260506195149 60 214 0.9 2.6 0.00 0.05 0.05 89 1005.7
20260506194646 60 223 3.5 7.8 0.00 0.05 0.05 88 1005.6
20260506194142 60 202 2.6 2.6 0.00 0.05 0.05 88 1005.6
20260506193640 60 228 4.3 6.1 0.05 0.05 0.05 88 1005.9
20260506193137 60 137 2.6 3.5 0.12 0.05 0.05 87 1005.8
20260506192634 61 112 0.0 0.9 0.07 0.04 0.04 86 1005.7
20260506192130 61 152 0.9 0.9 0.05 0.03 0.03 84 1005.8
20260506191627 62 208 3.5 7.0 0.05 0.03 0.03 83 1005.7
20260506191122 62 229 3.5 3.5 0.07 0.02 0.02 84 1005.9
20260506190621 63 156 0.9 1.7 0.07 0.02 0.02 81 1005.9
20260506190117 63 147 0.0 0.9 0.00 0.01 0.01 80 1005.6
20260506185614 64 144 0.9 0.9 0.05 0.01 0.01 78 1005.7
20260506185110 64 209 3.5 7.0 0.05 0.01 0.01 76 1005.8
20260506184608 65 209 1.7 2.6 0.00 0.00 0.00 74 1005.9
20260506184106 66 156 0.9 0.9 0.00 0.00 0.00 72 1005.9
20260506183601 66 194 3.5 3.5 0.00 0.00 0.00 70 1006.0
20260506183058 66 146 0.9 0.9 0.00 0.00 0.00 69 1006.0
20260506182555 67 156 1.7 2.6 0.00 0.00 0.00 67 1006.1
20260506182052 68 143 0.9 0.9 0.00 0.00 0.00 66 1006.2
20260506181550 68 127 0.0 0.9 0.00 0.00 0.00 64 1006.2
20260506181047 68 163 1.7 2.6 0.00 0.00 0.00 62 1006.2
20260506180543 69 174 4.3 8.7 0.00 0.00 0.00 61 1006.0
20260506180040 69 194 1.7 2.6 0.00 0.00 0.00 60 1006.0
20260506175536 70 196 1.7 5.2 0.00 0.00 0.00 58 1006.1
20260506175033 70 137 0.9 1.7 0.00 0.00 0.00 58 1006.0
20260506174532 71 237 3.5 5.2 0.00 0.00 0.00 56 1006.1
20260506174027 71 185 1.7 1.7 0.00 0.00 0.00 55 1005.9
20260506173525 71 150 1.7 1.7 0.00 0.00 0.00 55 1006.1
20260506173022 71 188 3.5 3.5 0.00 0.00 0.00 54 1006.2
20260506172519 72 223 2.6 3.5 0.00 0.00 0.00 53 1006.2
20260506172015 72 209 6.1 12.2 0.00 0.00 0.00 53 1006.3
20260506171514 72 131 4.3 7.0 0.00 0.00 0.00 53 1006.2
20260506171011 72 135 0.0 0.9 0.00 0.00 0.00 54 1006.2
20260506170508 72 135 0.9 1.7 0.00 0.00 0.00 53 1006.2
20260506170005 72 120 1.7 1.7 0.00 0.00 0.00 54 1006.2
20260506165504 71 160 2.6 3.5 0.00 0.00 0.00 54 1006.3
20260506164959 72 248 4.3 6.1 0.00 0.00 0.00 54 1006.3
20260506164456 72 202 4.3 7.8 0.00 0.00 0.00 53 1006.3
20260506163954 72 144 0.9 0.9 0.00 0.00 0.00 55 1006.4
20260506163449 72 154 0.9 1.7 0.00 0.00 0.00 54 1006.4
20260506162944 72 223 6.1 9.6 0.00 0.00 0.00 53 1006.5
20260506162442 72 131 3.5 7.8 0.00 0.00 0.00 54 1006.8
20260506161939 72 214 1.7 2.6 0.00 0.00 0.00 54 1006.5
20260506161437 71 171 1.7 1.7 0.00 0.00 0.00 55 1006.8
20260506160934 71 145 3.5 3.5 0.00 0.00 0.00 55 1006.9
20260506160431 71 117 0.0 0.9 0.00 0.00 0.00 56 1007.1
20260506155929 71 181 3.5 3.5 0.00 0.00 0.00 56 1007.1
20260506155426 71 136 0.0 0.9 0.00 0.00 0.00 57 1007.1
20260506153548 70 115 1.7 1.7 0.00 0.00 0.00 59 1007.5
20260506153045 70 154 0.0 0.9 0.00 0.00 0.00 58 1007.6
20260506152542 70 146 0.9 0.9 0.00 0.00 0.00 57 1007.5
20260506152040 70 136 0.9 0.9 0.00 0.00 0.00 57 1007.8
20260506151538 70 150 0.9 1.7 0.00 0.00 0.00 57 1007.5
20260506151035 70 138 1.7 5.2 0.00 0.00 0.00 58 1007.6
20260506150531 71 144 1.7 2.6 0.00 0.00 0.00 58 1007.7
20260506150028 71 118 1.7 1.7 0.00 0.00 0.00 58 1007.7
20260506145525 71 221 2.6 5.2 0.00 0.00 0.00 57 1007.8
20260506145022 71 144 1.7 3.5 0.00 0.00 0.00 59 1007.7
20260506144519 70 147 0.9 1.7 0.00 0.00 0.00 60 1007.8
20260506144016 70 176 1.7 2.6 0.00 0.00 0.00 59 1007.6
20260506143514 70 147 0.9 1.7 0.00 0.00 0.00 61 1007.7
20260506143012 70 153 2.6 3.5 0.00 0.00 0.00 60 1007.7
20260506142509 69 127 0.9 1.7 0.00 0.00 0.00 62 1007.6
20260506142008 69 133 0.9 1.7 0.00 0.00 0.00 62 1007.8
20260506141505 69 140 0.9 1.7 0.00 0.00 0.00 62 1007.7
20260506141003 69 126 0.0 0.9 0.00 0.00 0.00 63 1007.8
20260506140500 69 112 2.6 3.5 0.00 0.00 0.00 65 1007.7
20260506135957 68 172 0.9 1.7 0.00 0.00 0.00 64 1007.8
20260506135454 68 141 0.9 1.7 0.00 0.00 0.00 66 1007.6
20260506134950 67 132 0.0 0.0 0.00 0.00 0.00 68 1008.0
20260506134446 67 131 1.7 1.7 0.00 0.00 0.00 65 1007.7
20260506133943 66 155 0.9 1.7 0.00 0.00 0.00 68 1008.0
20260506133440 67 217 6.1 9.6 0.00 0.00 0.00 66 1007.8
20260506132937 66 213 0.9 2.6 0.00 0.00 0.00 69 1008.1
20260506132434 66 160 0.9 0.9 0.00 0.00 0.00 69 1008.4
20260506131931 66 219 4.3 5.2 0.00 0.00 0.00 67 1008.4
20260506131428 66 205 0.9 2.6 0.00 0.00 0.00 69 1008.5
20260506130925 66 143 1.7 1.7 0.00 0.00 0.00 69 1008.3
20260506130421 66 209 3.5 3.5 0.00 0.00 0.00 69 1008.3
20260506125919 66 165 1.7 1.7 0.00 0.00 0.00 69 1008.4
20260506125417 66 141 0.0 0.0 0.00 0.00 0.00 70 1008.4
20260506124915 65 196 1.7 2.6 0.00 0.00 0.00 71 1008.3
20260506124412 65 160 0.9 0.9 0.00 0.00 0.00 71 1008.4
20260506123910 65 159 0.9 1.7 0.00 0.00 0.00 71 1008.4
20260506123408 64 124 0.0 0.0 0.00 0.00 0.00 72 1008.3
20260506122905 64 140 1.7 2.6 0.00 0.00 0.00 72 1008.3
20260506122402 64 224 0.9 3.5 0.00 0.00 0.00 72 1008.7
20260506121900 64 169 4.3 5.2 0.00 0.00 0.00 72 1008.6
20260506121357 64 38 1.7 1.7 0.00 0.00 0.00 74 1008.5
20260506120853 63 138 0.0 0.9 0.00 0.00 0.00 74 1008.5
20260506120351 63 158 0.0 0.9 0.00 0.00 0.00 74 1008.5
20260506115849 63 184 5.2 5.2 0.00 0.00 0.00 73 1008.4
20260506115347 63 155 1.7 2.6 0.00 0.00 0.00 74 1008.5
20260506114844 63 124 0.9 0.9 0.00 0.00 0.00 74 1008.5
20260506114342 62 204 4.3 5.2 0.00 0.00 0.00 75 1008.5
20260506113841 61 132 0.0 0.0 0.00 0.00 0.00 77 1008.6
20260506113338 61 177 0.9 1.7 0.00 0.00 0.00 77 1008.7
20260506112834 61 141 0.9 0.9 0.00 0.00 0.00 77 1008.8
20260506112331 61 225 2.6 5.2 0.00 0.00 0.00 77 1009.0
20260506111829 61 99 0.9 0.9 0.00 0.00 0.00 77 1008.9
20260506111327 61 142 0.0 0.0 0.00 0.00 0.00 78 1009.1
20260506110824 61 133 0.0 0.0 0.00 0.00 0.00 78 1008.9
20260506110321 61 142 0.0 0.0 0.00 0.00 0.00 78 1008.7
20260506105818 61 220 3.5 6.1 0.00 0.00 0.00 78 1008.8
20260506105314 60 147 3.5 3.5 0.00 0.00 0.00 78 1008.7
20260506104812 60 153 0.0 0.0 0.00 0.00 0.00 79 1008.7
20260506104310 60 150 0.0 0.9 0.00 0.00 0.00 80 1008.8
20260506103807 59 128 0.0 0.0 0.00 0.00 0.00 80 1008.7
20260506103304 59 132 0.0 0.0 0.00 0.00 0.00 80 1008.6
20260506102801 59 132 0.0 0.0 0.00 0.00 0.00 80 1008.7
20260506102259 59 148 0.0 0.0 0.00 0.00 0.00 80 1008.8
20260506101757 59 163 0.9 0.9 0.00 0.00 0.00 80 1008.9
20260506101252 59 131 0.9 0.9 0.00 0.00 0.00 80 1008.6
20260506100750 59 132 0.0 0.0 0.00 0.00 0.00 80 1008.8
20260506100248 59 222 2.6 3.5 0.00 0.00 0.00 81 1008.6
20260506095747 59 137 0.0 0.0 0.00 0.00 0.00 80 1008.7
20260506095243 59 130 0.0 0.0 0.00 0.00 0.00 80 1008.7
20260506094740 59 158 2.6 2.6 0.00 0.00 0.00 80 1008.8
20260506094238 59 130 0.0 0.0 0.00 0.00 0.00 80 1008.4
20260506093737 59 146 0.9 0.9 0.00 0.00 0.00 80 1008.3
20260506093233 59 143 0.0 0.9 0.00 0.00 0.00 80 1008.5
20260506092731 59 112 0.0 0.0 0.00 0.00 0.00 79 1008.6
20260506092229 59 107 0.0 0.0 0.00 0.00 0.00 79 1008.6
20260506091726 59 137 0.0 0.0 0.00 0.00 0.00 79 1008.5
20260506091223 59 140 0.0 0.9 0.00 0.00 0.00 79 1008.4
20260506090721 59 107 0.0 0.0 0.00 0.00 0.00 79 1008.5
20260506090218 59 141 1.7 3.5 0.00 0.00 0.00 79 1008.5
20260506085715 59 151 0.9 1.7 0.00 0.00 0.00 79 1008.5
20260506085211 59 144 0.0 0.0 0.00 0.00 0.00 78 1008.7
20260506084708 59 111 0.0 0.0 0.00 0.00 0.00 78 1008.7
20260506084204 59 164 0.9 1.7 0.00 0.00 0.00 78 1008.8
20260506083701 59 119 0.0 0.0 0.00 0.00 0.00 78 1008.7
20260506083159 60 156 2.6 3.5 0.00 0.00 0.00 78 1008.7
20260506082656 60 135 0.0 0.0 0.00 0.00 0.00 77 1008.6
20260506082156 60 193 0.9 1.7 0.00 0.00 0.00 77 1008.7
20260506081654 60 145 0.0 0.9 0.00 0.00 0.00 76 1008.7
20260506081152 60 141 0.0 0.0 0.00 0.00 0.00 76 1008.8
20260506080650 60 143 0.0 0.0 0.00 0.00 0.00 76 1008.7
20260506080146 60 143 0.9 0.9 0.00 0.00 0.00 75 1008.8
20260506073130 61 145 1.7 1.7 0.00 0.00 0.00 73 1008.6
20260506072626 61 117 0.0 0.0 0.00 0.00 0.00 73 1008.4
20260506072125 61 137 0.0 0.0 0.00 0.00 0.00 73 1008.5
20260506071622 61 177 2.6 3.5 0.00 0.00 0.00 73 1008.5
20260506071119 61 147 0.0 0.0 0.00 0.00 0.00 72 1008.5
20260506070616 62 207 2.6 3.5 0.00 0.00 0.00 72 1008.4
20260506070114 62 245 3.5 5.2 0.00 0.00 0.00 72 1008.5
20260506062050 62 91 3.5 6.1 0.00 0.00 0.00 69 1008.4
20260506061546 63 127 0.0 0.0 0.00 0.00 0.00 68 1008.5
20260506061044 63 139 0.0 0.9 0.00 0.00 0.00 68 1008.3
20260506060543 63 127 1.7 2.6 0.00 0.00 0.00 67 1008.6
20260506051011 63 131 0.9 0.9 0.00 0.00 0.00 65 1008.4
20260506050509 64 133 0.0 0.0 0.00 0.00 0.00 64 1008.6
20260506044959 63 232 0.9 1.7 0.00 0.00 0.00 63 1008.6
20260506044458 63 125 0.0 0.9 0.00 0.00 0.00 63 1008.8
20260506043954 63 127 0.0 0.9 0.00 0.00 0.00 63 1008.6
20260506043451 63 116 0.0 0.0 0.00 0.00 0.00 63 1008.8
20260506042949 63 140 2.6 2.6 0.00 0.00 0.00 62 1008.8
20260506042448 64 138 0.0 0.0 0.00 0.00 0.00 63 1008.7
20260506041946 63 208 5.2 6.1 0.00 0.00 0.00 62 1008.7
20260506041443 63 143 0.0 0.9 0.00 0.00 0.00 62 1008.7
20260506040941 63 158 0.0 0.9 0.00 0.00 0.00 63 1008.8
20260506040438 63 151 0.9 1.7 0.00 0.00 0.00 63 1008.7
20260506035934 63 121 0.9 1.7 0.00 0.00 0.00 63 1008.7
20260506035431 63 123 0.0 0.0 0.00 0.00 0.00 63 1008.7
20260506034928 63 142 0.0 0.0 0.00 0.00 0.00 63 1008.8
20260506034425 63 143 0.0 0.9 0.00 0.00 0.00 62 1008.5
20260506033922 63 139 0.0 0.0 0.00 0.00 0.00 63 1008.7
20260506033420 63 143 0.0 0.0 0.00 0.00 0.00 63 1008.8
20260506032916 63 96 0.0 0.9 0.00 0.00 0.00 63 1008.7
20260506032413 63 93 0.9 0.9 0.00 0.00 0.00 63 1008.6
20260506031910 63 140 1.7 2.6 0.00 0.00 0.00 62 1008.4
20260506031407 63 125 0.0 0.0 0.00 0.00 0.00 63 1008.7